Regional Weather Roundup
Issued by NWS New Orleans/Baton Rouge, LA

Home | Current Version | Previous Version | Text Only | Print | Product List | Glossary On
Versions: 1 2 3 4 5 6 7 8 9 10 11 12 13 14 15 16 17 18 19 20 21 22 23 24 25 26 27 28 29 30 31 32 33 34 35 36 37 38 39 40 41 42 43 44 45 46 47 48 49 50
000
ASUS44 KLIX 302211
RWRLIX
NEW ORLEANS REGIONAL WEATHER ROUNDUP
NATIONAL WEATHER SERVICE NEW ORLEANS LA
500 PM CDT SAT APR 30 2016

NOTE: "FAIR" INDICATES FEW OR NO CLOUDS BELOW 12,000 FEET WITH NO
      SIGNIFICANT WEATHER AND/OR OBSTRUCTIONS TO VISIBILITY.
      SKY/WX - SKY CONDITION AND SIGNIFICANT WEATHER.
      TMP - AIR TEMPERATURE.     DP    - DEWPOINT TEMPERATURE.
      RH  - RELATIVE HUMIDITY.   PRES  - PRESSURE.
      HI  - HEAT INDEX.          WCI   - WIND CHILL INDEX.

*  THESE STATIONS ARE NOT NWS OR FAA STATIONS AND ARE NOT UNDER
   NWS QUALITY CONTROL.

LAZ038-040-048-061>063-065>067-069-302300-
SOUTHEAST LOUISIANA

CITY           SKY/WX    TMP DP  RH WIND       PRES   REMARKS
N.O. AUDUBON   NOT AVBL
N.O. INTL ARPT LGT RAIN  73  68  84 SE7       29.81F
N.O. LAKEFRONT TSTM      66  65  96 S18       29.84F
N.O. DOWNTOWN* CLOUDY    72  70  94 VRB6      29.84F
RESERVE*       CLOUDY    72  69  90 S15G25    29.78F
SLIDELL        LGT RAIN  70  67  90 SW6       29.89S
BATON ROUGE    PTSUNNY   75  68  78 SE12G22   29.77R
BOOTHVILLE     LGT RAIN  75  73  93 E5        29.87R FOG
BELLE CHASSE   TSTM      69  68  96 E20G30    29.85F
BOGALUSA*      RAIN      68  65  89 SE10      29.91F
GALLIANO*      TSTM      69  66  90 NW17G36   29.88R VSB 3/4
NEW ROADS*       N/A     76  69  79 SE15G21   29.76R
GONZALES*        N/A     73  69  87 SE6       29.77F
HAMMOND*       CLOUDY    70  64  83 SE13      29.78F
HOUMA*         RAIN      68  68 100 SE10      29.84F
PORT FOURCHON* MOCLDY    75  72  88 S13G21    29.84R

$$

MSZ070-080>082-302300-
SOUTHERN MISSISSIPPI

CITY           SKY/WX    TMP DP  RH WIND       PRES   REMARKS
MCCOMB         CLOUDY    67  66  97 S12       29.79R
GULFPORT       LGT RAIN  76  73  91 SE8       29.87S FOG
BILOXI         CLOUDY    77  77 100 SE5       29.88S
PASCAGOULA     CLOUDY    77  73  87 SE8       29.90R
STENNIS ARPT*  TSTM      73  66  78 SE8       29.89R

$$

COASTAL OBSERVATIONS
LAKE AND NEARSHORE STATIONS

STATION/POSITION TIME  TEMP    WIND        PRES    WAVE
                       AIR SEA DIR/SP/G            HT/PER
                 (UTC) (F)     (DEG/KT/KT) (MB)    (FT/S)
PASCAGOULA       2100   78     130/  9/ 15 1011.4
WAVELAND YACHT   2100   77 75  140/ 10/ 11 1011.3
GRAND ISLE       2100   77 78  130/  4/  5 1010.6
SOUTHWEST PASS   2100          140/ 11/ 15   N/A
NEW CANAL        2100   68 75  270/ 10/ 16 1011.4
SHELL BEACH      2100   76 77  140/ 11/ 13 1011.5

OFFSHORE STATIONS

STATION/POSITION TIME  TEMP    WIND        PRES    WAVE
                       AIR SEA DIR/SP/G            HT/PER
                 (UTC) (F)     (DEG/KT/KT) (MB)    (FT/S)
64 S DAUPHIN ISL 2100   76 74  130/ 12/ 14 1010.3

$$




USA.gov is the U.S. government's official web portal to all federal, state and local government web resources and services.